Regional Weather Roundup
Issued by NWS Goodland, KS

Home | Current Version | Previous Version | Text Only | Print | Product List | Glossary Off
Versions: 1 2 3 4 5 6 7 8 9 10 11 12 13 14 15 16 17 18 19 20 21 22 23 24 25 26 27 28 29 30 31 32 33 34 35 36 37 38 39 40 41 42 43 44 45 46 47 48 49 50

814
ASUS43 KGLD 282008
RWRGLD

GOODLAND FORECAST AREA HOURLY WEATHER ROUNDUP
NATIONAL WEATHER SERVICE GOODLAND KS
200 PM MDT THU JUL 28 2016

...OFFICIAL OBSERVATIONS...

CITY           SKY/WX    TMP DP  RH WIND       PRES   REMARKS
GOODLAND KS    SUNNY     82  62  50 N7        30.13R
HILL CITY KS   CLOUDY    83  68  60 SE16G23   29.91F
IMPERIAL NEB   CLOUDY    68  61  78 NE16      30.13F
MCCOOK NEB     TSTM      75  67  76 NW24G38   30.10R
AKRON CO       SUNNY     73  59  61 E16G23    30.16F
BURLINGTON CO  SUNNY     82  60  47 NE9       30.14S
LIMON CO       SUNNY     90  49  24 N16G25    30.15R
$$

...UNOFFICIAL OBSERVATIONS...

CITY           SKY/WX    TMP DP  RH WIND       PRES   REMARKS
COLBY KS       SUNNY     88  55  33 CALM      30.09R
LENORA KS        N/A     82  32  16 MISG        N/A
NORTON KS      MOSUNNY   84  61  45 NE16G24   30.00F
SHARON SPRINGS   N/A     84  67  55 NE12G20     N/A
KIT CARSON CO    N/A     89  59  36 MISG        N/A
YUMA CO          N/A     75  65  71 NE12        N/A
$$




USA.gov is the U.S. government's official web portal to all federal, state and local government web resources and services.